This demonstration page uses our WeatherBlox Daily Observations layout. Learn more.

Left ArrowRight Arrow

39.08367, -84.50855

Hourly Observations for March 3, 2018

Temp ( °F °C ) Dew Point ( °F °C ) Humidity (%) Winds ( mph kmh ) Pressure ( in mb ) Visibility ( mi km ) Precip ( " mm )
12:53 am 00:53 Clear 34 1.1 29 -1.7 82 82 N N/A 30.46 1031 10 16 N/A
1:53 am 01:53 Clear 33 0.6 29 -1.7 85 85 N N/A 30.46 1032 10 16 N/A
2:53 am 02:53 Clear 32 undefined 30 -1.1 92 92 N N/A 30.47 1032 10 16 N/A
3:53 am 03:53 Clear 30 -1.1 28 -2.2 92 92 NNE 3 6 30.47 1032 10 16 N/A
4:53 am 04:53 Clear 31 -0.6 30 -1.1 96 96 N N/A 30.46 1032 10 16 N/A
5:53 am 05:53 Clear 30 -1.1 28 -2.2 92 92 N N/A 30.47 1032 10 16 N/A
6:53 am 06:53 Clear 29 -1.7 28 -2.2 96 96 N N/A 30.50 1033 10 16 N/A
7:53 am 07:53 Sunny 31 -0.6 30 -1.1 96 96 N N/A 30.52 1034 9 14 N/A
8:53 am 08:53 Sunny 35 1.7 32 undefined 89 89 N N/A 30.53 1034 10 16 N/A
9:53 am 09:53 Sunny 39 3.9 29 -1.7 67 67 E 5 7 30.52 1034 10 16 N/A
10:53 am 10:53 Sunny 44 6.7 24 -4.4 45 45 NNE 10 17 30.53 1034 10 16 N/A
11:53 am 11:53 Sunny 46 7.8 26 -3.3 46 46 NNE 14 22 30.52 1034 10 16 N/A
12:53 pm 12:53 Sunny 47 8.3 25 -3.9 42 42 NNE 10 17 30.50 1033 10 16 N/A
1:53 pm 13:53 Sunny 48 8.9 24 -4.4 39 39 NE 12 19 30.47 1032 10 16 N/A
2:53 pm 14:53 Sunny 49 9.4 24 -4.4 38 38 NE 9 15 30.45 1031 10 16 N/A
3:53 pm 15:53 Sunny 50 10 21 -6.1 32 32 N 12 19 30.44 1031 10 16 N/A
4:53 pm 16:53 Sunny 49 9.4 22 -5.6 35 35 NNE 12 19 30.44 1031 10 16 N/A
5:53 pm 17:53 Sunny 46 7.8 23 -5 40 40 NNE 13 20 30.44 1031 10 16 N/A
6:53 pm 18:53 Clear 44 6.7 24 -4.4 45 45 N 7 11 30.45 1031 10 16 N/A
7:53 pm 19:53 Clear 42 5.6 24 -4.4 49 49 N 5 7 30.46 1032 10 16 N/A
8:53 pm 20:53 Clear 39 3.9 25 -3.9 57 57 NE 7 11 30.46 1032 10 16 N/A
9:53 pm 21:53 Clear 37 2.8 26 -3.3 65 65 ENE 7 11 30.46 1032 10 16 N/A
10:53 pm 22:53 Clear 37 2.8 24 -4.4 59 59 NE 12 19 30.46 1032 10 16 N/A
11:53 pm 23:53 Clear 35 1.7 24 -4.4 64 64 NE 9 15 30.46 1032 10 16 N/A

Powered by AerisWeather